COSMOS 529

Satellite information

Favourite Embed

Satellite Type and Status

PAYLOADIN ORBIT

Key statistics

Satellite COSMOS 529 at a glance.

Uptime

19242

Days in orbit

Revolutions

≈ 12.6

Per day

Orbit

LEO

Low Earth Orbit

Inclination

74.0

Latest

Satellite identification and parameters

Extended collection of information and parameters for COSMOS 529.

Object identification

Identified? True

Debris? False

Object name: COSMOS 529

International designator: 1972-087B

Object number (NORAD): 6264

Object ID (CCSDS): 6264

Country: COMMONWEALTH OF INDEPENDENT STATES (CIS)

Current information (Y/N): Y

RCS size: MEDIUM

Orbital parameters

Period: 114.54 minutes

Inclination: 74.0351 deg

SMA: 7812.629 km

Apoapsis: 1467.664 km

Periapsis: 1401.324 km

RAAN: 100.7408 deg

Eccentricy: 0.0042457

Argument of periapsis: 301.2378 deg

Mean anomaly: 138.7228 deg

Mean motion: 12.57207434 rev/day

Mean motion (dot): -0.00000033 rev/day2

B* drag term: -0.000098551 1/REarth

Two-line elements (TLE)

Creation date: July 8, 2025, 2:27 a.m.

Reference frame: TEME

Reference center: EARTH

Epoch: July 7, 2025, 11 p.m. UTC

TLE line 0: 0 COSMOS 529

TLE line 1: 1 06264U 72087B 25188.95873647 -.00000033 00000-0 -98551-4 0 9995

TLE line 2: 2 06264 74.0351 100.7408 0042457 301.2378 138.7228 12.57207434417734

Live tracking on map

Real-time ground track for satellite COSMOS 529.

In-orbit conjunctions

There are no conjunctions computed for COSMOS 529, at the moment. Check back to stay up to date, as we update our databases every day.

Go to all conjunctions

Associated space launch

Military communications satellites

COSMOS 529 was lifted into orbit during the mission ‘Kosmos-3M | Strela-1M 33-40’, on board a Kosmos-3M space rocket.

The launch took place on Nov. 1, 1972, 2:08 a.m. from 132/2.

For more information about the launch, click the button.

Launch to space Kosmos-3M | Strela-1M 33-40
Kosmos-3M | Strela-1M 33-40

Agency: N/A

Status: Launch Successful

Launch date: Nov. 1, 1972, 2:08 a.m. UTC

Rocket: Kosmos-3M

Launch pad: 132/2

Location: Plesetsk Cosmodrome, Russian Federation

...

Latest news about this satellite

There are no fresh news available about this satellite. Check back as we update our databases every day.


Newsletter sign-up

Weekly statistics, charts and insights to help you stay on top of the space industry.